Regional Weather Roundup
Issued by NWS

Home | Current Version | Previous Version | Graphics & Text | Print | Product List | Glossary On
Versions: 1 2 3 4 5 6 7 8 9 10 11 12 13 14 15 16 17 18 19 20 21 22 23 24 25 26 27
000
ASUS45 KTFX 180210
RWRMT
MONTANA REGIONAL WEATHER ROUNDUP
NATIONAL WEATHER SERVICE GREAT FALLS MT
700 PM MST SAT FEB 17 2018

NOTE: "FAIR" INDICATES FEW OR NO CLOUDS BELOW 12000 FEET WITH NO
SIGNIFICANT WEATHER AND/OR OBSTRUCTIONS TO VISIBILITY.

MTZ001>007-043-180300-
WEST OF THE DIVIDE

CITY           SKY/WX    TMP DP  RH WIND       PRES   REMARKS
KALISPELL      FOG       21  20  96 NE28      29.38S VSB 1/4 WCI   3
MISSOULA       LGT RAIN  34  31  88 SE12      29.44R WCI  25
BUTTE          LGT SNOW  33  29  85 NE8       29.43F VSB 1   WCI  26
MULLAN PASS    LGT SNOW  26  25  96 W13G31    29.30R VSB 3/4 WCI  15
ANACONDA         N/A     34  30  86 MISG      29.41F
DEER LODGE       N/A     34  34 100 MISG      29.44R
EUREKA           N/A     18  16  93 MISG      29.43R VSB 0
HAMILTON         N/A     36  34  93 MISG      29.47R
RONAN            N/A     37  32  81 S24G33    29.39S WCI  26
$$

MTZ008-052>055-180300-
SOUTHWEST MONTANA

CITY           SKY/WX    TMP DP  RH WIND       PRES   REMARKS
BOZEMAN        CLOUDY    41  27  57 W18       29.45F
DILLON         CLOUDY    37  22  54 SW30G39   29.45F WCI  24
ENNIS          CLOUDY    39  23  52 S37G43    29.52F WCI  26
W YELLOWSTONE  MIX PCPN  27  27 100 SW29G41   29.57F VSB 1/4 WCI  11
$$

MTZ009-010-012-014-046-048-049-054-180300-
EAST SLOPES AND CENTRAL MONTANA

CITY           SKY/WX    TMP DP  RH WIND       PRES   REMARKS
CUT BANK       SNOW       8   6  92 N15       29.59S VSB 1/2 WCI  -9
GREAT FALLS    LGT SNOW  17  14  88 N10       29.44R VSB 1   WCI   5
MALMSTROM AFB  LGT SNOW  18  17  97 N10       29.44F WCI   6
HELENA         CLOUDY    26  25  96 NW5       29.41F
AUGUSTA        LGT SNOW  10   8  95 N24       29.46S VSB 1   WCI -11
BOWMANS CRNR   LGT SNOW  13  11  92 N18       29.44R WCI  -4
FAIRFIELD      LGT SNOW  10   6  84 N18       29.50R FOG     WCI  -8
POWER          LGT SNOW  12  10  89 N21       29.45F WCI  -7
RAYNESFORD     MOCLDY    19  15  84 SE24G31   29.40F WCI   1
ULM            LGT SNOW  18  17  95 NW18      29.46R WCI   2
WHITE SULPHUR    N/A     30  28  93 S10       29.40F FOG     WCI  21
$$

MTZ011-013-016-021-045-047-050-051-180300-
NORTH CENTRAL MONTANA

CITY           SKY/WX    TMP DP  RH WIND       PRES   REMARKS
HAVRE          SNOW      10   7  87 E29G37    29.67F VSB 1/2 WCI -12
LEWISTOWN      LGT SNOW  16  13  88 E24       29.44F FOG     WCI  -2
N BAR RANCH    LGT SNOW  14  12  92 SE9       29.54F WCI   2
CHINOOK          N/A     10   7  85 MISG      29.73F VSB 1
GEYSER         FLURRIES  16  15  94 N7        29.44F WCI   7
STANFORD       FLURRIES  16  14  93 NW9       29.41F WCI   4
WINIFRED       LGT SNOW  15  13  92 E31       29.48F FOG     WCI  -6
$$

MTZ017>020-022>027-061-062-180300-
NORTHEAST MONTANA

CITY           SKY/WX    TMP DP  RH WIND       PRES   REMARKS
GLASGOW        CLOUDY    13   6  74 E12       29.77F WCI  -1
GLENDIVE       CLOUDY    15  10  80 E8        29.78F WCI   4
JORDAN           N/A     16  12  84 E16       29.70F WCI   1
MALTA          CLOUDY    10   7  85 E12       29.75F FOG     WCI  -4
SIDNEY         FAIR      15   8  73 NE6       29.85F WCI   6
WOLF POINT     CLOUDY    15   8  73 E6        29.83F WCI   6
PLENTYWOOD       N/A     10   1  67 CALM      29.84F
$$

MTZ028>42-056>058-180300-
SOUTHCENTRAL AND SOUTHEAST MONTANA

CITY           SKY/WX    TMP DP  RH WIND       PRES   REMARKS
BAKER          MOCLDY    14  10  84 SE16      29.75F WCI  -2
BILLINGS       CLOUDY    20  19  96 N8        29.54F WCI  10
LIVINGSTON     CLOUDY    39  29  67 SW38G53   29.40F WCI  26
MILES CITY     MOCLDY    18  12  77 E9        29.71F WCI   7
BIG TIMBER     FOG       25  25 100 SE8       29.49F VSB 3/4 WCI  16
FORSYTH          N/A     18  14  86 E17       29.65F WCI   2
HARLOWTON      LGT SNOW  17  15  92 E5        29.51F
LAUREL           N/A     21  19  93 N14       29.54F WCI   8
$$

REGIONAL REPORTS...DAKOTAS

CITY           SKY/WX    TMP DP  RH WIND       PRES   REMARKS
WILLISTON      CLOUDY    12   5  73 CALM      29.87F
MINOT          FAIR      12   3  67 W9        29.90F WCI   0
DICKINSON      MOCLDY    14   7  73 SE5       29.80F
BEACH          CLOUDY    14  10  85 E8        29.81F WCI   3
CROSBY         FAIR       7   1  78 S8        29.88S WCI  -6
TIOGA          FAIR       9   5  85 CALM      29.87F
WATFORD CITY   FAIR      12   5  73 CALM      29.86F
BISMARCK       FAIR      17   8  67 SW5       29.94F
GRAND FORKS    FLURRIES  15  10  80 N6        29.97S WCI   6
FARGO          FAIR      14   8  77 SW6       29.98F WCI   5
BUFFALO SD       N/A     15  11  83 SE13      29.72F WCI   1
RAPID CITY     CLOUDY    24  20  84 S7        29.79F WCI  16
$$

REGIONAL REPORTS...WYOMING/IDAHO/WASHINGTON

CITY           SKY/WX    TMP DP  RH WIND       PRES   REMARKS
GILLETTE       FAIR      35  22  58 S12       29.58F WCI  27
SHERIDAN       FAIR      26  21  81 W5        29.56F
BUFFALO WY     FAIR      30  21  69 NW13      29.54F WCI  20
CODY           FAIR      38  22  52 W13G24    29.54F WCI  30
YELLOWSTONE LA   N/A     23  20  88 VRB7      29.64F WCI  15
IDAHO FALLS    LGT RAIN  41  26  55 SW31G41   29.75F
SALMON         LGT RAIN  44  31  60 SW22G28   29.47F
BOISE          MOCLDY    46  30  53 SE14      29.70F
SPOKANE        FAIR      38  31  76 W22       29.44R WCI  27
$$

REGIONAL REPORTS...ALBERTA

CITY           SKY/WX    TMP DP  RH WIND       PRES   REMARKS
CALGARY        LGT SNOW   7   1  78 NE8       29.75S WCI  -6
CARDSTON         N/A      5   1  85 N10         N/A  WCI -10
EDMONTON       PTCLDY     1  -8  66 N7        29.88R WCI -11
FORT MCMURRAY  CLOUDY     1  -6  71 VRB2      29.93S
HIGH LEVEL     CLOUDY    10   3  72 NW5       29.98S
LETHBRIDGE     LGT SNOW   7   3  85 NE16      29.74S VSB 3/4 WCI -11
LLOYDMINSTER   FLURRIES   7  -2  66 NW9       29.82R WCI  -7
MEDICINE HAT   FLURRIES  10   1  67 NE8       29.80R WCI  -1
MILK RIVER       N/A      9   5  85 NE18        N/A  WCI -10
PEACE RIVER    MOCLDY     3  -8  60 W6        29.98R WCI  -8
PINCHER CREEK  LGT SNOW   5   3  92 NE13      29.69R VSB 5/8 WCI -12
WATERTON GATE    N/A      5   0  78 NE10        N/A  WCI -10
$$

REGIONAL REPORTS...SASKATCHEWAN

CITY           SKY/WX    TMP DP  RH WIND       PRES   REMARKS
CORONACH         N/A      9   3  78 S3          N/A
ESTEVAN        MOCLDY     1  -4  78 W5        29.85F
MOOSE JAW        N/A      1  -4  78 W6          N/A  WCI -10
PRINCE ALBERT  PTCLDY     0  -6  78 W2        29.86R
REGINA         MOCLDY     0  -6  78 NW6       29.83F WCI -12
ROCKGLEN         N/A      7   1  78 S2          N/A
SASKATOON      CLOUDY     3  -4  72 W8        29.85F WCI -10
SWIFT CURRENT  CLOUDY     7   0  72 NW5       29.77R
VAL MARIE        N/A      9   3  78 NE5         N/A
$$




USA.gov is the U.S. government's official web portal to all federal, state and local government web resources and services.